NIMIQ 2

Last updated on Wed Sep 17 2025 00:02:46 GMT+0000 (Coordinated Universal Time)

1 27632U 02062A 25259.49065160 -.00000084 00000+0 00000+0 0 9995 2 27632 8.8079 59.7124 0005542 121.5886 241.8093 1.00272175 41444
UTC large
Height (km)
Speed (km/s)
/
Latitude / Longitude
Inclination (degrees)
Orbital Period (minutes)
Azimuth
Elevation
Range (km)
Doppler Factor

Next 0 passes for location: London (51.5072 / 0.1276)

Sorry there are no passes over London.